Weather History for Pompano Beach, FL

Change the Weather History Date:

Saturday, September 7, 2013

  Actual Average Record
Temperature  
Mean Temperature 82 °F -  
Max Temperature 86 °F 91 °F 96 °F (1989)
Min Temperature 75 °F 74 °F 68 °F (1951)
Cooling Degree Days 16    
Growing Degree Days 32 (Base 50)    
Moisture  
Dew Point 73 °F    
Average Humidity 79    
Maximum Humidity 88    
Minimum Humidity 65    
Precipitation  
Precipitation 0.03 in - - ()
Sea Level Pressure  
Sea Level Pressure 29.96 in    
Wind  
Wind Speed 5 mph (NNE)    
Max Wind Speed 15 mph    
Max Gust Speed 18 mph    
Visibility 10 miles    
Events Rain , Thunderstorm    
Averages and records for this station are not official NWS values.
T = Trace of Precipitation, MM = Missing Value Source: NWS Daily Summary

Daily Weather History Graph

Daily Weather History Graph

Search for Another Location

Airport:

Trip Planner

Search our weather history database for the weather conditions in past years. The results will help you decide how hot, cold, wet, or windy it might be!

Date:

Astronomy

Sep. 07, 2013 Rise Set
Actual Time 7:02 AM EDT 7:33 PM EDT
Civil Twilight 6:39 AM EDT 7:56 PM EDT
Nautical Twilight 6:12 AM EDT 8:23 PM EDT
Astronomical Twilight 5:44 AM EDT 8:51 PM EDT
Moon 8:57 AM EDT (9/7) 8:51 PM EDT (9/7)
Length of Visible Light 13h 16m
Length of Day
12h 30m
Waxing Crescent, 5% of the Moon is Illuminated
Sep 7
Waxing Crescent
Sep 12
First Quarter
Sep 19
Full
Sep 26
Last Quarter
Oct 4
New

Hourly Weather History & Observations

Time (EDT) Temp. Heat Index Dew Point Humidity Pressure Visibility Wind Dir Wind Speed Gust Speed Precip Events Conditions
12:53 AM 82.9 °F 90.2 °F 75.0 °F 77% 29.97 in 10.0 mi Calm Calm - N/A   Unknown
1:53 AM 82.9 °F 90.2 °F 75.0 °F 77% 29.96 in 10.0 mi Calm Calm - N/A   Unknown
2:53 AM - - - N/A% 29.94 in 10.0 mi ENE 3.5 mph - N/A   Unknown
3:53 AM 82.0 °F 87.9 °F 73.9 °F 76% 29.93 in 10.0 mi NE 4.6 mph - 0.00 in   Unknown
4:53 AM 81.0 °F 86.7 °F 75.0 °F 82% 29.94 in 10.0 mi North 5.8 mph - N/A   Unknown
5:53 AM 80.1 °F 85.1 °F 75.0 °F 85% 29.94 in 10.0 mi North 4.6 mph - N/A   Unknown
6:53 AM 78.1 °F - 72.0 °F 81% 29.96 in 10.0 mi North 10.4 mph - 0.03 in Rain Light Rain
7:10 AM 78.8 °F - 71.6 °F 78% 29.95 in 10.0 mi NE 12.7 mph - N/A Thunderstorm Unknown
7:25 AM 78.8 °F - 68.0 °F 69% 29.95 in 10.0 mi NE 15.0 mph - N/A   Unknown
7:36 AM 78.8 °F - 71.6 °F 78% 29.96 in 10.0 mi ENE 10.4 mph - N/A Thunderstorm Unknown
7:51 AM 78.8 °F - 71.6 °F 78% 29.95 in 10.0 mi ENE 6.9 mph - N/A   Unknown
7:53 AM - - - N/A% 29.96 in 10.0 mi NE 6.9 mph - N/A   Unknown
8:53 AM 80.1 °F 83.8 °F 72.0 °F 76% 29.98 in 10.0 mi ESE 5.8 mph - N/A   Mostly Cloudy
9:53 AM 81.0 °F 86.2 °F 73.9 °F 79% 29.99 in 10.0 mi Calm Calm - N/A   Mostly Cloudy
10:53 AM 82.0 °F 88.6 °F 75.0 °F 79% 29.99 in 10.0 mi SSE 3.5 mph - N/A   Mostly Cloudy
11:53 AM 84.0 °F 91.9 °F 75.0 °F 74% 30.00 in 10.0 mi East 3.5 mph - N/A   Mostly Cloudy
12:53 PM 84.9 °F 93.3 °F 75.0 °F 72% 29.99 in 10.0 mi South 3.5 mph - N/A   Mostly Cloudy
1:15 PM 84.2 °F 90.9 °F 73.4 °F 70% 29.98 in 10.0 mi South 4.6 mph - N/A Thunderstorm Thunderstorm
1:53 PM 86.0 °F 93.0 °F 73.0 °F 65% 29.98 in 10.0 mi SE 5.8 mph - N/A Thunderstorm Thunderstorm
2:53 PM 84.0 °F 90.2 °F 73.0 °F 69% 29.96 in 10.0 mi ESE 6.9 mph - N/A Thunderstorm Thunderstorm
3:53 PM 81.0 °F 85.8 °F 73.0 °F 77% 29.95 in 10.0 mi NW 13.8 mph 18.4 mph 0.00 in Thunderstorm Thunderstorm
4:53 PM 78.1 °F - 73.0 °F 84% 29.92 in 10.0 mi North 8.1 mph - 0.00 in Rain , Thunderstorm Light Thunderstorms and Rain
5:04 PM 77.0 °F - 71.6 °F 83% 29.92 in 10.0 mi North 8.1 mph - 0.00 in   Unknown
5:53 PM 78.1 °F - 73.0 °F 84% 29.93 in 10.0 mi North 6.9 mph - 0.00 in   Mostly Cloudy
6:53 PM 79.0 °F - 73.0 °F 82% 29.93 in 10.0 mi NNW 8.1 mph - N/A   Mostly Cloudy
7:53 PM 77.0 °F - 73.0 °F 88% 29.94 in 10.0 mi NNW 5.8 mph - N/A   Mostly Cloudy
8:53 PM 77.0 °F - 73.0 °F 88% 29.95 in 10.0 mi NW 4.6 mph - N/A   Mostly Cloudy
9:53 PM 77.0 °F - 72.0 °F 84% 29.97 in 10.0 mi NNW 6.9 mph - N/A   Unknown
10:53 PM 77.0 °F - 71.1 °F 82% 29.96 in 10.0 mi NNW 4.6 mph - N/A   Unknown
11:53 PM 75.9 °F - 71.1 °F 85% 29.95 in 10.0 mi NNW 5.8 mph - N/A   Unknown